Regional Weather Roundup
Issued by NWS

Home | Current Version | Previous Version | Graphics & Text | Print | Product List | Glossary On
Versions: 1 2 3 4 5 6 7 8 9 10 11 12 13 14 15 16 17 18 19 20 21 22 23 24 25 26 27 28 29 30 31 32 33 34 35 36 37 38 39 40 41 42 43 44 45 46 47 48 49 50
000
ASUS43 KDTX 260110
RWRMI
MICHIGAN HOURLY REGIONAL WEATHER ROUNDUP
NATIONAL WEATHER SERVICE DETROIT/PONTIAC MI
900 PM EDT SAT MAY 25 2019

NOTE: "FAIR" INDICATES FEW OR NO CLOUDS BELOW 12,000 FEET WITH NO
SIGNIFICANT WEATHER AND/OR OBSTRUCTION TO VISIBILITY.

MIZ047>049-052>055-059>063-066>070-074>076-081>083-260200-
SOUTHEAST LOWER MICHIGAN

CITY           SKY/WX    TMP DP  RH WIND       PRES   REMARKS
ADRIAN         FAIR      75  61  61 W6        29.96S
ALMA           FAIR      72  63  71 SW9       29.91S
ANN ARBOR      FAIR      73  63  70 W10       29.94R
BAD AXE        FAIR      72  64  74 SW10      29.86S
CARO           FAIR      71  63  75 SW9       29.88S
DETROIT CITY   FAIR      76  62  62 W9        29.92R
DETROIT        FAIR      76  62  62 W10       29.93S
FLINT          FAIR      74  62  66 W9        29.92R
GROSSE ILE     FAIR      75  64  68 W6        29.93R
HILLSDALE      FAIR      73  62  66 W6        29.97S
HOWELL         FAIR      73  58  58 W10G16    29.94S

CITY           SKY/WX    TMP DP  RH WIND       PRES   REMARKS
JACKSON        FAIR      71  62  73 SW6       29.95S
LAMBERTVILLE   FAIR      77  63  62 W7        29.95S
LANSING        FAIR      74  62  66 W9        29.93F
LAPEER         FAIR      72  63  73 W7        29.92R
MASON          FAIR      75  62  65 W5        29.94F
MONROE         FAIR      76  67  74 W7        29.93S
MT. CLEMENS    PTCLDY    76  65  70 W9        29.90R
PONTIAC        FAIR      74  62  66 W9        29.92R
PORT HOPE        N/A     73  67  81 W8        29.82S
PORT HURON     FAIR      75  61  60 CALM      29.90R
TRI CITIES     FAIR      73  65  75 SW12      29.89R
MIDLAND        FAIR      73  62  68 SW12G21   29.87S
TROY           FAIR      76  62  60 W10       29.94R
SAGINAW HB     FAIR      73  63  68 SW12G18   29.89R
$$
MIZ043>046-050>051-056>058-064>065-071>073-077>080-260200-
SOUTHWEST LOWER MICHIGAN

CITY           SKY/WX    TMP DP  RH WIND       PRES   REMARKS
BATTLE CREEK   FAIR      74  62  66 W8        29.96S
BENTON HARBOR  FAIR      73  62  68 SW7       29.93F
BIG RAPIDS     FAIR      71  62  74 SW8       29.89S
COLDWATER      FAIR      74  65  74 SW3       29.97S
FREMONT        FAIR      69  59  71 SW6       29.90R
HOLLAND        FAIR      70  61  73 SW7       29.93S
GRAND RAPIDS   FAIR      72  63  73 W10       29.93S
IONIA          FAIR      71  61  69 SW9       29.92S
KALAMAZOO      FAIR      75  62  64 SW3       29.95S
LUDINGTON      FAIR      68  57  68 SW14      29.85S
MOUNT PLEASANT FAIR      71  63  76 SW8       29.88F
MUSKEGON       FAIR      66  58  75 SW9       29.91S
SOUTH HAVEN    FAIR      74  61  63 SW3       29.94S
$$
MIZ016>042-260200-
NORTHERN LOWER MICHIGAN

CITY           SKY/WX    TMP DP  RH WIND       PRES   REMARKS
ALPENA         FAIR      78  51  38 SW9G20    29.76R
BEAVER ISLAND  FAIR      55  49  80 NE3       29.83R
BELLAIRE       FAIR      75  58  54 SW8       29.79R
CADILLAC       FAIR      72  61  67 SW12      29.85R
CHARLEVOIX     FAIR      60  53  78 W21G26    29.84R
FRANKFORT      FAIR      67  54  63 SW9G22    29.83R
GAYLORD        FAIR      73  56  54 SW20G30   29.81R
GRAYLING       FAIR      73  56  53 W10       29.81R
HARBOR SPRINGS FAIR      65  56  73 NW16G25   29.80R
HOUGHTON LAKE  FAIR      72  55  55 SW13G23   29.84S
MANISTEE       FAIR      72  60  66 SW10G16   29.83R
OSCODA         FAIR      74  57  55 SW14      29.80R
PELLSTON       FAIR      63  53  70 NW10      29.82R
ROGERS CITY    MOCLDY    53  50  89 NW6       29.81R
TRAVERSE CITY  MOCLDY    77  61  57 SW14G23   29.79R THUNDER
$$
MIZ007>008-015-260200-
EASTERN UPPER MICHIGAN

CITY           SKY/WX    TMP DP  RH WIND       PRES   REMARKS
KINROSS        MOCLDY    54  51  90 N5        29.81R
MACKINAC ISLAN CLOUDY    59  48  67 NW9       29.81R
NEWBERRY       FAIR      60  45  57 NW8       29.82R
S. S. MARIE    MOCLDY    55  46  71 NW9       29.80R
MUNISING         N/A     54  42  64 N13       29.83R
$$
MIZ004>006-011>014-085-260200-
CENTRAL UPPER MICHIGAN

CITY           SKY/WX    TMP DP  RH WIND       PRES   REMARKS
MANISTIQUE     FAIR      61  46  56 N12G20    29.82R
ESCANABA       FAIR      65  48  54 NE7       29.82R
MENOMINEE      FAIR      76  42  29 NW8G20    29.81R
SAWYER-GWINN   PTCLDY    64  45  48 NW20G28   29.83R
$$
MIZ001>003-009>011-084-260200-
WESTERN UPPER MICHIGAN

CITY           SKY/WX    TMP DP  RH WIND       PRES   REMARKS
IRON MOUNTAIN  CLOUDY    71  44  37 W14G22    29.82R
HOUGHTON       CLOUDY    59  43  55 W14       29.85R
COPPER HARBOR    N/A     59  46  62 NW14G24   29.82R
IRONWOOD       CLOUDY    61  46  57 NW8       29.91R
$$

ABBREVIATIONS USED IN REMARKS
   TC - TEMPERATURE IN CELSIUS
  WCI - WIND CHILL INDEX
   HX - HEAT INDEX
  VSB - VISIBILITY




USA.gov is the U.S. government's official web portal to all federal, state and local government web resources and services.